Home > Weather > Chongqing > Past weeks

Flag for China Past Weather in Chongqing, Chongqing Municipality, China — Yesterday and Last 2 Weeks

Now
82 °F

Clear.


Feels Like: 87 °F
Forecast: 83 / 106 °F
Wind: 3 mph from North

Location: Chongqing Airport

Current Time: Jul 24, 2016 at 5:21:25 AM

Latest Report: Jul 24, 2016 at 5:00 AM


Visibility: 10 mi

Pressure: 29.59 "Hg

Humidity: 70%

Dew Point: 72 °F

Location of ChongqingLocation

Past Weather in Chongqing — Graph

°F

Chongqing Temperature Yesterday

Maximum temperature yesterday: 97 °F (at 3:00 PM)
Minimum temperature yesterday: 81 °F (at 6:00 AM)
Average temperature yesterday: 90 °F

High & Low Weather Summary for the Past Weeks

 TemperatureHumidityPressure
High100 °F (Jul 11, 3:00 PM)94% (Jul 19, 3:00 AM)29.77 "Hg (Jul 19, 3:00 AM)
Low72 °F (Jul 14, 7:00 PM)35% (Jul 21, 4:00 PM)29.42 "Hg (Jul 18, 3:00 PM)
Average86 °F66%29.58 "Hg
* Reported Jul 9 4:00 AM — Jul 24 4:00 AM, Chongqing, Weather by CustomWeather, © 2016

Note: Actual official high and low records may vary slightly from our data, if they occured in-between our weather recording intervals... More about our weather records

Advertising

Chongqing Weather History for the Previous 24 Hours

Scroll right to see more
 ConditionsComfort  
Time TempWeatherWind HumidityBarometerVisibility
4:00 AM
Sun, Jul 24
82 °FClear.3 mph70%29.62 "Hg10 mi
3:00 AM82 °FClear.1 mph66%29.62 "Hg10 mi
2:00 AM82 °FClear.1 mph66%29.62 "Hg10 mi
1:00 AM82 °FClear.1 mph66%29.62 "Hg10 mi
12:00 AM84 °FPassing clouds.1 mph62%29.62 "HgN/A
11:00 PM
Sat, Jul 23
90 °FPassing clouds.13 mph55%29.62 "Hg5 mi
10:00 PM91 °FPassing clouds.3 mph49%29.59 "Hg5 mi
9:00 PM91 °FPassing clouds.3 mph52%29.56 "Hg5 mi
8:00 PM91 °FPassing clouds.6 mph49%29.56 "HgN/A
7:00 PM93 °FPassing clouds.6 mph47%29.53 "HgN/A
6:00 PM95 °FPassing clouds.6 mph44%29.53 "HgN/A
5:00 PM95 °FScattered clouds.8 mph47%29.56 "HgN/A
4:00 PM95 °FScattered clouds.8 mph47%29.56 "HgN/A
3:00 PM97 °FScattered clouds.3 mph42%29.59 "HgN/A
2:00 PM93 °FPartly sunny.1 mph49%29.62 "HgN/A
1:00 PM95 °FScattered clouds.3 mph44%29.62 "HgN/A
12:00 PM93 °FPassing clouds.6 mph49%29.65 "HgN/A
11:00 AM91 °FPassing clouds.3 mph56%29.65 "HgN/A
10:00 AM90 °FPassing clouds.1 mph63%29.65 "HgN/A
9:00 AM86 °FPassing clouds.1 mph70%29.65 "Hg5 mi
8:00 AM82 °FClear.1 mph79%29.65 "Hg5 mi
7:00 AM81 °FClear.3 mph84%29.62 "Hg5 mi
6:00 AM81 °FClear.3 mph84%29.62 "Hg5 mi
5:00 AM82 °FClear.3 mph79%29.62 "Hg5 mi
Weather by CustomWeather, © 2016

See weather overviewHow to use our weather pages